Weather in Agirish

Russia / Khanty-Mansi Autonomous Okrug — Yugra     61°55′35″N   63°01′03″E
temp.,
°C
wind,
m/s
gust,
m/s
humid.,
%
clouds,
%
prec.,
mm/h
press.,
hPa
HPBL,
m
9 march, tue
tue923:00−23e1210092 0.1 100620
02:00−24ene239988 0.0 100538
05:00−24ene239994 0.0 100684
08:00−23ene239899 0.0 1006112
11:00−20ne2395100 0.1 1006202
14:00−17ne2287100 0.1 1007466
17:00−17nne1290100 0.1 1008482
20:00−22nne12100100 0.1 101020
10 march, wed
wed1023:00−24n1299100 0.1 101220
02:00−28nnw1210088 0.0 101319
05:00−29nw1210078 0.0 101419
08:00−31nw12990 0.0 101419
11:00−24nnw128913 0.0 1015298
14:00−20nw128295 0.0 1014673
17:00−21nw128498 0.0 1012655
20:00−27nnw119569 0.0 101319
11 march, thu
thu1123:00−29sse009641 0.0 101219
02:00−28ssw119487 0.0 101219
05:00−26e119894 0.1 101119
08:00−26ese1198100 0.1 101257
11:00−22ese1191100 0.1 1013306
14:00−18ne0181100 0.0 1012662
17:00−19w0181100 0.1 1011660
20:00−24s229497 0.0 101120
12 march, fri
fri1223:00−23s269696 0.0 1010149
02:00−23ssw389695 0.0 1008233
05:00−21ssw499698 0.1 1006286
08:00−21sw4109699 0.1 1005263
11:00−13wsw5108695 0.1 1004668
14:00−10w61184100 0.1 1004977
17:00−9w61186100 0.2 10041033
20:00−11w5138897 0.1 1005716
13 march, sat
sat1323:00−12w5138861 0.1 1006449
02:00−12w4128953 0.0 1007375
05:00−11w5148971 0.0 1008472
08:00−11w6158766 0.0 1009559
11:00−7w6148378 0.0 1010666
14:00−4w61380100 0.0 1010682
17:00−4w71477100 0.0 1011756
20:00−6w7178033 0.0 1012684